SCOUT A R/B, 2811

Orbit data source: Space-Track

SCOUT A R/B, 2811 is space debris in LEO originally from a launch on Thu, 18 May 1967 UTC launched from the Air Force Western Test Range (AFWTR). Debris objects in space refer to the collection of defunct objects orbiting the Earth. Examples of debris include non-operational satellites, rocket bodies, and fragments generated from explosions, collisions, or faulty payload assembly.

Loading next visibility...
Identifier
2811, 1967-048B
Orbit
LEO
Country
Flag of USUS
Related business
Manufacturer
ABL
Mission
Spacecraft
Bus & Motor
ALTAIR, Unknown motor
Mass
33 kg wet, 33 kg dry
Launch date (UTC)
1967-05-18 (59 years ago)
Launch vehicle
Unknown
Launch site
Air Force Western Test Range (AFWTR)
Object type
Payload
Rocket body
Debris
Shape & HBR
Unknown
Radar Cross Section
Medium (>0.1 m² and <1 m²)

Expand to show TLE details & history
Last TLE update: 11 hours ago

TLE from 11 hours ago
0 SCOUT A R/B
1  2811U 67048B   26129.52722640  .00000048  00000-0  58978-4 0  9998
2  2811  89.6790 352.1690 0021338 108.6515 313.7363 13.49327439901294
Epoch: 2026-05-09T12:39Z
TLE epoch observation values (Epoch: 2026-05-09T12:39:12.360Z)
Latitude
62.29578°
Longitude
-64.3677°
Altitude
1,074.522 km
Speed
7.326 km/s
True Right ascension
23h 31m 06s
True Declination
62° 09' 36"
Sunlit
Object was in daylight at epoch
Visualization orbit readout
Latitude
Unknown
Longitude
Unknown
Altitude
Unknown
Speed
Unknown
Apparent Right ascension
Unknown
Apparent Declination
Unknown
Sunlit
N/A
Visualization observer readout
Local Sidereal Time
07:50:57
Azimuth
Unknown
Elevation
Unknown
Doppler factor
Unknown
Orbital elements
Apogee altitude
1,087.682 km
Perigee altitude
1,055.888 km
Semi-major axis
7,449.922 km
Eccentricity
0.00213
Inclination
89.679°
RAAN
352.169°
Arg. of periapsis
108.6515°
True anomaly
313.5593°
Mean anomaly
313.7363°
Eccentric anomaly
313.64783°
Mean motion
3.37532 °/min
Orbital period
106.66 mins
BSTAR
0.000058978
Loading maneuver chart data...
Computing Atmospheric mass density...
Loading historical data...
Loading historical data...
Loading historical data...
Loading historical data...
Loading historical data...
Loading historical data...
Loading historical data...

Documentation

Showing up to 5 results
|